Rockford, IL

10:51 PM CDT on September 30, 2016 (GMT -0500)
Greater Rockford

Weather History for KRFD - April, 2013

Change the Weather History Date:

Saturday, April 27, 2013

  Actual Average Record
Temperature  
Mean Temperature 55 °F 54 °F  
Max Temperature 67 °F 65 °F 88 °F (1915)
Min Temperature 42 °F 42 °F 26 °F (1933)
Degree Days  
Heating Degree Days 10 12  
Month to date heating degree days 540 443  
Since 1 July heating degree days 6369 6307  
Cooling Degree Days 0 0  
Month to date cooling degree days 0 0  
Year to date cooling degree days 0 0  
Growing Degree Days 4 (Base 50)    
Moisture  
Dew Point 44 °F    
Average Humidity 68    
Maximum Humidity 92    
Minimum Humidity 43    
Precipitation  
Precipitation 0.00 in 0.11 in 1.91 in (1956)
Month to date precipitation 7.94 2.99  
Year to date precipitation 16.30 8.09  
Snow  
Snow 0.00 in 0.00 in 1.00 in (1979)
Month to date snowfall T 0.9  
Since 1 July snowfall 40.5 36.7  
Snow Depth 0.00 in    
Sea Level Pressure  
Sea Level Pressure 30.18 in    
Wind  
Wind Speed 6 mph (SSE)    
Max Wind Speed 18 mph    
Max Gust Speed 22 mph    
Visibility 10 miles    
Events      
T = Trace of Precipitation, MM = Missing Value Source: NWS Daily Summary

Daily Weather History Graph

Daily Weather History Graph

Search for Another Location

Airport or City:

Trip Planner

Search our weather history database for the weather conditions in past years. The results will help you decide how hot, cold, wet, or windy it might be!

Date:

Astronomy

Apr. 27, 2013 Rise Set
Actual Time 5:57 AM CDT 7:51 PM CDT
Civil Twilight 5:26 AM CDT 8:21 PM CDT
Nautical Twilight 4:50 AM CDT 8:58 PM CDT
Astronomical Twilight 4:10 AM CDT 9:38 PM CDT
Moon 10:22 PM CDT (4/27) 7:13 AM CDT (4/27)
Length of Visible Light 14h 54m
Length of Day
13h 54m
Waning Gibbous, 95% of the Moon is Illuminated
Apr 27
Waning Gibbous
May 2
Last Quarter
May 9
New
May 17
First Quarter
May 24
Full

Hourly Weather History & Observations

Time (CDT) Temp. Windchill Dew Point Humidity Pressure Visibility Wind Dir Wind Speed Gust Speed Precip Events Conditions
12:54 AM 48.0 °F - 43.0 °F 83% 30.29 in 10.0 mi South 8.1 mph - N/A   Clear
1:54 AM 48.0 °F - 44.1 °F 86% 30.28 in 10.0 mi SSW 4.6 mph - N/A   Clear
2:54 AM 46.9 °F - 43.0 °F 86% 30.27 in 10.0 mi South 4.6 mph - N/A   Clear
3:54 AM 45.0 °F 42.6 °F 42.1 °F 90% 30.28 in 10.0 mi South 4.6 mph - N/A   Clear
4:54 AM 45.0 °F 43.5 °F 43.0 °F 93% 30.27 in 10.0 mi South 3.5 mph - N/A   Clear
5:54 AM 44.1 °F 42.5 °F 42.1 °F 93% 30.25 in 9.0 mi SE 3.5 mph - N/A   Clear
6:54 AM 45.0 °F 43.5 °F 43.0 °F 93% 30.26 in 8.0 mi SE 3.5 mph - N/A   Clear
7:54 AM 50.0 °F - 45.0 °F 83% 30.26 in 10.0 mi SSE 6.9 mph - N/A   Partly Cloudy
8:54 AM 53.1 °F - 46.9 °F 80% 30.24 in 10.0 mi South 3.5 mph - N/A   Partly Cloudy
9:54 AM 59.0 °F - 46.9 °F 64% 30.22 in 10.0 mi South 5.8 mph - N/A   Partly Cloudy
10:54 AM 62.1 °F - 46.9 °F 58% 30.23 in 10.0 mi ESE 10.4 mph 17.3 mph N/A   Scattered Clouds
11:54 AM 64.0 °F - 45.0 °F 50% 30.22 in 10.0 mi South 11.5 mph 17.3 mph N/A   Partly Cloudy
12:54 PM 64.0 °F - 44.1 °F 48% 30.19 in 10.0 mi South 13.8 mph - N/A   Scattered Clouds
1:54 PM 64.9 °F - 42.1 °F 43% 30.18 in 10.0 mi SSE 9.2 mph 19.6 mph N/A   Mostly Cloudy
2:54 PM 66.0 °F - 44.1 °F 45% 30.14 in 10.0 mi South 8.1 mph 18.4 mph N/A   Mostly Cloudy
3:54 PM 64.9 °F - 43.0 °F 45% 30.12 in 10.0 mi South 11.5 mph - N/A   Mostly Cloudy
4:54 PM 64.9 °F - 43.0 °F 45% 30.10 in 10.0 mi SSE 4.6 mph - N/A   Mostly Cloudy
5:54 PM 64.9 °F - 42.1 °F 43% 30.09 in 10.0 mi SSE 5.8 mph - N/A   Mostly Cloudy
6:54 PM 64.9 °F - 41.0 °F 42% 30.06 in 10.0 mi Calm Calm - N/A   Mostly Cloudy
7:54 PM 63.0 °F - 39.0 °F 41% 30.06 in 10.0 mi SSE 4.6 mph - N/A   Mostly Cloudy
8:54 PM 62.1 °F - 39.9 °F 44% 30.05 in 10.0 mi ESE 3.5 mph - N/A   Overcast
9:54 PM 60.1 °F - 43.0 °F 53% 30.05 in 10.0 mi SE 5.8 mph - N/A   Overcast
10:54 PM 57.9 °F - 46.9 °F 67% 30.04 in 10.0 mi SSE 3.5 mph - N/A   Overcast
11:54 PM 57.0 °F - 48.0 °F 72% 30.02 in 10.0 mi SE 4.6 mph - N/A   Overcast